Regional Weather Roundup
Issued by NWS Little Rock, AR

Home | Current Version | Previous Version | Text Only | Print | Product List | Glossary Off
Versions: 1 2 3 4 5 6 7 8 9 10 11 12 13 14 15 16 17 18 19 20 21 22 23 24 25 26 27 28 29 30 31 32 33 34 35 36 37 38 39 40 41 42 43 44 45 46 47

000
ASUS44 KLZK 052105
RWRLZK

WEATHER ROUNDUP FOR ARKANSAS
NATIONAL WEATHER SERVICE LITTLE ROCK AR
400 PM CDT SUN JUL 05 2015

NOTE: "FAIR" INDICATES FEW OR NO CLOUDS BELOW 12,000 FEET WITH NO
SIGNIFICANT WEATHER AND/OR OBSTRUCTIONS TO VISIBILITY.

ARZ001-003-010-029-052200-
NORTHWEST ARKANSAS

CITY           SKY/WX    TMP DP  RH WIND       PRES   REMARKS
FAYETTEVILLE   PTSUNNY   85  74  69 SE6       30.01S HX  92
FORT SMITH     PTSUNNY   90  73  57 VRB6      29.96F HX  98
HARRISON       TSTM      69  65  86 S13       30.05F
BENTONVILLE    PTSUNNY   88  73  62 SW8       30.02S HX  96
ROGERS         PTSUNNY   88  73  61 S12       30.02S HX  95
SILOAM SPGS    PTSUNNY   88  73  62 S7        30.01S HX  96
HIGHFILL       PTSUNNY   88  75  65 S10       30.00S HX  97
SPRINGDALE     MOSUNNY   86  73  66 S10       30.03S HX  93
$$

ARZ004-005-016-052200-
NORTH CENTRAL ARKANSAS

CITY           SKY/WX    TMP DP  RH WIND       PRES   REMARKS
BATESVILLE     MOSUNNY   84  73  70 SE5       30.04F HX  91
FLIPPIN          N/A     79  70  73 S5        30.02R THUNDER
MTN HOME       CLOUDY    81  70  69 SW10      30.03R THUNDER
$$

ARZ040-041-052200-
WEST CENTRAL ARKANSAS

CITY           SKY/WX    TMP DP  RH WIND       PRES   REMARKS
MENA           PTSUNNY   90  75  62 SW5       30.02F HX 100
MOUNT IDA      PTSUNNY   86  74  67 S5        30.00S HX  94
$$

ARZ009-017-025-026-028-052200-
NORTHEAST ARKANSAS

CITY           SKY/WX    TMP DP  RH WIND       PRES   REMARKS
JONESBORO      PTSUNNY   82  72  71 SW14      30.03S HX  87
NEWPORT        PTSUNNY   85  74  69 S7        30.04F HX  92
WALNUT RIDGE   PTSUNNY   84  72  65 S10       30.02F HX  89
BLYTHEVILLE    MOSUNNY   86  74  67 SW8       30.03F HX  94
$$

ARZ022-023-033-042-044-052200-
CENTRAL ARKANSAS

CITY           SKY/WX    TMP DP  RH WIND       PRES   REMARKS
LITTLE ROCK    CLOUDY    82  73  74 S16G22    30.03F HX  87
N LITTLE ROCK  CLOUDY    83  76  79 S10G16    30.03F HX  92
JACKSONVILLE   MOSUNNY   82  75  80 SE13      30.02F HX  88
SEARCY         CLOUDY    83  76  79 S15       30.04F HX  91
HOT SPRINGS    MOSUNNY   89  73  59 W9        30.01F HX  97
RUSSELLVILLE   CLOUDY    85  76  74 E6        29.99F HX  94
CLINTON        FAIR      84  77  79 E5        30.02F HX  94
$$

ARZ036-052200-
EAST ARKANSAS

CITY           SKY/WX    TMP DP  RH WIND       PRES   REMARKS
WEST MEMPHIS   PTSUNNY   81  73  76 SW7       30.04F HX  86
$$

ARZ050-053-066-070-073-052200-
SOUTHWEST ARKANSAS

CITY           SKY/WX    TMP DP  RH WIND       PRES   REMARKS
ARKADELPHIA    FAIR      92  78  63 VRB5      30.01F HX 107
CAMDEN         HVY RAIN  68  66  94 MISG      30.08R VSB 1/2
TEXARKANA      MOSUNNY   92  74  55 S10       29.99F HX 101
EL DORADO      LGT RAIN  71  69  93 SE14G21   30.08R
DE QUEEN       MOSUNNY   90  75  61 SW9       29.97F HX 100
$$

ARZ056-057-069-052200-
SOUTHEAST ARKANSAS

CITY           SKY/WX    TMP DP  RH WIND       PRES   REMARKS
PINE BLUFF     MOSUNNY   78  70  76 S10       30.05F
STUTTGART      CLOUDY    79  72  78 MISG      30.04F
MONTICELLO     CLOUDY    72  69  90 SW7       30.04F

$$




USA.gov is the U.S. government's official web portal to all federal, state and local government web resources and services.